This demonstration page uses our WeatherBlox Daily Observations layout. Learn more.

Left ArrowRight Arrow

Hourly Observations for August 30, 2015

Temp ( °F °C ) Dew Point ( °F °C ) Humidity (%) Winds ( mph kmh ) Pressure ( in mb ) Visibility ( mi km ) Precip ( " mm )
12:15 am 00:15 Clear 63 17 57 14 83 83 S 8 13 30.00 1016 10 16 0.00 0.00
12:35 am 00:35 Clear 61 16 55 13 83 83 S 6 9 30.03 1017 10 16 0.00 0.00
12:55 am 00:55 Clear 61 16 55 13 83 83 S 6 9 30.03 1017 10 16 0.00 0.00
1:15 am 01:15 Clear 61 16 55 13 83 83 SSE 8 13 30.03 1017 10 16 0.00 0.00
1:35 am 01:35 Clear 61 16 57 14 88 88 S 9 15 30.03 1017 10 16 0.00 0.00
1:55 am 01:55 Clear 61 16 57 14 88 88 S 8 13 30.03 1017 10 16 0.00 0.00
2:15 am 02:15 Clear 61 16 57 14 88 88 S 8 13 29.97 1015 10 16 0.00 0.00
2:35 am 02:35 Clear 61 16 57 14 88 88 S 8 13 29.97 1015 10 16 0.00 0.00
2:55 am 02:55 Clear 61 16 57 14 88 88 SSW 8 13 29.97 1015 10 16 0.00 0.00
3:15 am 03:15 Clear 61 16 57 14 88 88 SSW 8 13 29.97 1015 10 16 0.00 0.00
3:35 am 03:35 Clear 61 16 55 13 83 83 SSW 6 9 29.97 1015 10 16 0.00 0.00
3:55 am 03:55 Clear 59 15 55 13 88 88 SSW 6 9 30.00 1016 10 16 0.00 0.00
4:15 am 04:15 Clear 57 14 55 13 94 94 SSW 7 11 30.00 1016 8 13 0.00 0.00
4:35 am 04:35 Clear 57 14 54 12 88 88 SSW 7 11 30.00 1016 5 8 0.00 0.00
4:55 am 04:55 Clear 57 14 54 12 88 88 SSW 6 9 30.00 1016 5 8 0.00 0.00
5:15 am 05:15 Mostly Cloudy 59 15 55 13 88 88 SSW 7 11 30.00 1016 5 8 0.00 0.00
5:35 am 05:35 Cloudy 59 15 55 13 88 88 SSW 6 9 30.00 1016 0 0 0.00 0.00
5:55 am 05:55 Cloudy 59 15 55 13 88 88 SSW 6 9 30.00 1016 1 1 0.00 0.00
6:15 am 06:15 Cloudy 59 15 55 13 88 88 SSW 6 9 30.00 1016 1 1 0.00 0.00
6:35 am 06:35 Cloudy 59 15 55 13 88 88 S 6 9 30.00 1016 0 0 0.00 0.00
6:55 am 06:55 Cloudy 57 14 55 13 94 94 S 7 11 30.00 1016 5 8 0.00 0.00
7:15 am 07:15 Cloudy 57 14 55 13 94 94 S 6 9 30.00 1016 5 8 0.00 0.00
7:35 am 07:35 Cloudy 57 14 55 13 94 94 S 5 7 30.03 1017 5 8 0.00 0.00
7:55 am 07:55 Cloudy 57 14 55 13 94 94 S 5 7 30.00 1016 0 0 0.00 0.00
8:15 am 08:15 Cloudy 59 15 55 13 88 88 S 5 7 30.03 1017 0 0 0.00 0.00
8:35 am 08:35 Cloudy 59 15 55 13 88 88 SSW 5 7 30.03 1017 1 1 0.00 0.00
8:55 am 08:55 Partly Cloudy 61 16 57 14 88 88 S 5 7 29.97 1015 8 13 0.00 0.00
9:15 am 09:15 Sunny 61 16 57 14 88 88 S 5 7 29.97 1015 10 16 0.00 0.00
9:35 am 09:35 Sunny 63 17 59 15 88 88 S 6 9 30.00 1016 10 16 0.00 0.00
9:55 am 09:55 Sunny 64 18 61 16 88 88 SW 6 9 29.97 1015 10 16 0.00 0.00
10:15 am 10:15 Sunny 66 19 61 16 83 83 S 6 9 29.97 1015 10 16 0.00 0.00
10:35 am 10:35 Sunny 70 21 61 16 73 73 S 8 13 29.94 1014 10 16 0.00 0.00
10:55 am 10:55 Sunny 72 22 63 17 73 73 S 9 15 29.94 1014 10 16 0.00 0.00
11:15 am 11:15 Sunny 73 23 61 16 65 65 SSE 10 17 29.94 1014 10 16 0.00 0.00
11:35 am 11:35 Sunny 75 24 63 17 65 65 SSE 13 20 29.91 1013 10 16 0.00 0.00
11:55 am 11:55 Sunny 77 25 63 17 61 61 S 12 19 29.91 1013 10 16 0.00 0.00
12:15 pm 12:15 Sunny 79 26 63 17 58 58 SSE 14 22 29.91 1013 10 16 0.00 0.00
12:35 pm 12:35 Sunny 79 26 63 17 58 58 S 10 17 29.91 1013 10 16 0.00 0.00
12:55 pm 12:55 Sunny 81 27 63 17 54 54 S 13 20 29.91 1013 10 16 0.00 0.00
1:15 pm 13:15 Sunny 81 27 63 17 54 54 S 12 19 29.88 1012 10 16 0.00 0.00
1:35 pm 13:35 Sunny 82 28 63 17 51 51 SSE 13 20 29.85 1011 10 16 0.00 0.00
1:55 pm 13:55 Sunny 82 28 64 18 55 55 SSE 15 24 29.85 1011 10 16 0.00 0.00
2:15 pm 14:15 Sunny 82 28 63 17 51 51 SSE 15 24 29.85 1011 10 16 0.00 0.00
2:35 pm 14:35 Sunny 82 28 64 18 55 55 SSE 13 20 29.85 1011 10 16 0.00 0.00
2:55 pm 14:55 Sunny 84 29 63 17 48 48 SSE 14 22 29.85 1011 10 16 0.00 0.00
3:15 pm 15:15 Sunny 84 29 63 17 48 48 SSE 14 22 29.83 1010 10 16 0.00 0.00
3:35 pm 15:35 Sunny 84 29 63 17 48 48 SSE 16 26 29.83 1010 10 16 0.00 0.00
3:55 pm 15:55 Sunny 84 29 63 17 48 48 SSE 15 24 29.83 1010 10 16 0.00 0.00
4:15 pm 16:15 Sunny 82 28 63 17 51 51 SSE 16 26 29.83 1010 10 16 0.00 0.00
4:35 pm 16:35 Sunny 82 28 63 17 51 51 SSE 15 24 29.83 1010 10 16 0.00 0.00
4:55 pm 16:55 Sunny 82 28 63 17 51 51 SSE 13 20 29.83 1010 10 16 0.00 0.00
5:15 pm 17:15 Sunny 82 28 63 17 51 51 SSE 15 24 29.83 1010 10 16 0.00 0.00
5:35 pm 17:35 Sunny 81 27 63 17 54 54 SSE 15 24 29.83 1010 10 16 0.00 0.00
5:55 pm 17:55 Sunny 81 27 61 16 51 51 SSE 13 20 29.83 1010 10 16 0.00 0.00
6:15 pm 18:15 Sunny 79 26 61 16 54 54 SSE 12 19 29.83 1010 10 16 0.00 0.00
6:35 pm 18:35 Sunny 79 26 63 17 58 58 SE 10 17 29.83 1010 10 16 0.00 0.00
6:55 pm 18:55 Sunny 77 25 61 16 57 57 SSE 9 15 29.83 1010 10 16 0.00 0.00
7:15 pm 19:15 Sunny 75 24 63 17 65 65 SE 10 17 29.83 1010 10 16 0.00 0.00
7:35 pm 19:35 Sunny 73 23 61 16 65 65 SE 9 15 29.83 1010 10 16 0.00 0.00
7:55 pm 19:55 Sunny 72 22 61 16 69 69 SSE 9 15 29.85 1011 10 16 0.00 0.00
8:15 pm 20:15 Clear 72 22 61 16 69 69 SSE 12 19 29.85 1011 10 16 0.00 0.00
8:35 pm 20:35 Clear 70 21 61 16 73 73 SSE 14 22 29.85 1011 10 16 0.00 0.00
8:55 pm 20:55 Clear 70 21 61 16 73 73 SSE 15 24 29.85 1011 10 16 0.00 0.00
9:15 pm 21:15 Clear 70 21 61 16 73 73 SSE 15 24 29.85 1011 10 16 0.00 0.00
9:35 pm 21:35 Clear 68 20 61 16 78 78 SSE 13 20 29.85 1011 10 16 0.00 0.00
9:55 pm 21:55 Clear 66 19 61 16 83 83 SSE 15 24 29.85 1011 10 16 0.00 0.00
10:15 pm 22:15 Clear 66 19 61 16 83 83 SSE 13 20 29.85 1011 10 16 0.00 0.00
10:35 pm 22:35 Clear 66 19 61 16 83 83 SSE 13 20 29.85 1011 10 16 0.00 0.00
10:55 pm 22:55 Clear 66 19 61 16 83 83 SSE 13 20 29.85 1011 10 16 0.00 0.00
11:15 pm 23:15 Clear 64 18 61 16 88 88 SSE 12 19 29.91 1013 10 16 0.00 0.00
11:35 pm 23:35 Clear 64 18 61 16 88 88 SSE 12 19 29.91 1013 10 16 0.00 0.00
11:55 pm 23:55 Clear 64 18 61 16 88 88 SSE 13 20 29.88 1012 10 16 0.00 0.00

Powered by AerisWeather